This is the latest recevied weather packets stored in our database for station/object EA3CO-11. If no packets are shown the sender has not sent any weather packets the latest 10 day(s).
| Time | Temp. | Humidity | Pressure | Rain* | Wind** | Luminosity | Snow |
|---|---|---|---|---|---|---|---|
| 1777525360 | 15.56° C | 49% | 1017.4 hPa | - | - | - | - |
| 1777524460 | 15.56° C | 51% | 1017.2 hPa | - | - | - | - |
| 1777523560 | 15.56° C | 53% | 1017.1 hPa | - | - | - | - |
| 1777522660 | 15.56° C | 52% | 1017 hPa | - | - | - | - |
| 1777521760 | 15.56° C | 55% | 1017 hPa | - | - | - | - |
| 1777520860 | 15.56° C | 57% | 1017 hPa | - | - | - | - |
| 1777519959 | 15.56° C | 58% | 1017 hPa | - | - | - | - |
| 1777519059 | 15.56° C | 65% | 1017 hPa | - | - | - | - |
| 1777518159 | 15.56° C | 67% | 1017.2 hPa | - | - | - | - |
| 1777517259 | 15° C | 72% | 1017.1 hPa | - | - | - | - |
| 1777516359 | 15.56° C | 76% | 1017.2 hPa | - | - | - | - |
| 1777515459 | 15.56° C | 80% | 1017.2 hPa | - | - | - | - |
| 1777514559 | 15.56° C | 81% | 1017.2 hPa | - | - | - | - |
| 1777513658 | 15.56° C | 85% | 1017.1 hPa | - | - | - | - |
| 1777512758 | 15° C | 88% | 1017.1 hPa | - | - | - | - |
| 1777511858 | 15.56° C | 88% | 1017.2 hPa | - | - | - | - |
| 1777510958 | 15.56° C | 87% | 1017.2 hPa | - | - | - | - |
| 1777510058 | 15.56° C | 88% | 1017.5 hPa | - | - | - | - |
| 1777509158 | 15.56° C | 89% | 1017.5 hPa | - | - | - | - |
| 1777508258 | 15.56° C | 90% | 1017.5 hPa | - | - | - | - |
| 1777507357 | 15° C | 95% | 1017.6 hPa | - | - | - | - |
| 1777506457 | 16.11° C | 96% | 1017.5 hPa | - | - | - | - |
| 1777505558 | 15.56° C | 100% | 1017.3 hPa | - | - | - | - |
| 1777504657 | 15.56° C | 100% | 1017.4 hPa | - | - | - | - |
| 1777503757 | 15.56° C | 100% | 1017.5 hPa | - | - | - | - |
* Rain since midnight (hover to see other rain measurements)
** Current wind speed in m/s (hover to see current wind gust speed)